Date String (YYYY-MM-DD hh:mm:ss) UTC,Instrument flags,Ambient pressure (hPa),Sample flow (lpm),Bypass flow (lpm),Sample temperature (°C),Ambient temperature (°C),ASC tube jacket temperature (°C),LED temperature (°C),Box temperature (°C),Sample RH (%),Span deviation,Mass concentration (μg/m³),Mass concentration (μg/m³),Mass concentration (μg/m³)
DateTimeUTC,F1_M11,P_M11,Q1_M11,Q2_M11,T1_M11,T2_M11,T3_M11,T4_M11,T5_M11,U1_M11,ZSPAN_M11,X2_M11,X0_M11,X1_M11
2023-04-07 15:00:00,,0833.6,5.00,0.00,22.5,20.8,00.0,30.9,23.9,08.8,0000.0,0003.66,0008.12,0002.60
2023-04-07 15:01:00,,0833.6,5.00,0.00,22.5,20.7,00.0,30.8,23.9,09.0,0000.0,0003.61,0007.83,0002.55
2023-04-07 15:02:00,,0833.6,4.99,0.00,22.5,20.7,00.0,30.8,23.9,08.8,0000.0,0003.54,0007.45,0002.50
2023-04-07 15:03:00,,0833.6,5.00,0.00,22.4,20.7,00.0,30.8,23.9,08.8,0000.0,0003.54,0007.46,0002.48
2023-04-07 15:04:00,,0833.5,5.01,0.00,22.4,20.7,00.0,30.8,23.9,09.2,0000.0,0003.54,0007.56,0002.44
2023-04-07 15:05:00,,0833.6,5.01,0.00,22.4,20.7,00.0,30.8,23.9,09.2,0000.0,0003.54,0007.63,0002.41
2023-04-07 15:06:00,,0833.6,4.99,0.00,22.4,20.7,00.0,30.8,23.9,09.6,0000.0,0003.57,0007.79,0002.40
2023-04-07 15:07:00,,0833.5,5.01,0.00,22.4,20.8,00.0,30.8,23.9,09.7,0000.0,0003.51,0007.67,0002.39
2023-04-07 15:08:00,,0833.5,5.01,0.00,22.4,20.8,00.0,30.8,23.9,09.6,0000.0,0003.51,0007.43,0002.38
2023-04-07 15:09:00,,0833.4,4.99,0.00,22.4,20.8,00.0,30.8,23.9,09.6,0000.0,0003.48,0007.34,0002.36
2023-04-07 15:10:00,,0833.4,4.99,0.00,22.4,20.8,00.0,30.8,23.9,09.3,0000.0,0003.46,0007.30,0002.34
2023-04-07 15:11:00,,0833.4,5.01,0.00,22.4,20.8,00.0,30.8,23.9,09.4,0000.0,0003.43,0007.13,0002.33
2023-04-07 15:12:00,,0833.4,5.01,0.00,22.4,20.8,00.0,30.8,23.9,10.4,0000.0,0003.44,0007.47,0002.34
2023-04-07 15:13:00,,0833.4,4.99,0.00,22.4,20.8,00.0,30.7,23.9,10.5,0000.0,0003.48,0007.74,0002.33
2023-04-07 15:14:00,,0833.4,4.99,0.00,22.4,20.8,00.0,30.7,23.9,10.2,0000.0,0003.45,0007.71,0002.32
2023-04-07 15:15:00,,0833.4,5.01,0.00,22.4,20.9,00.0,30.7,23.9,10.1,0000.0,0003.44,0007.95,0002.32
2023-04-07 15:16:00,,0833.4,5.00,0.00,22.4,20.9,00.0,30.7,23.9,10.2,0000.0,0003.44,0008.00,0002.33
2023-04-07 15:17:00,,0833.4,4.99,0.00,22.4,20.9,00.0,30.7,23.9,10.8,0000.0,0003.40,0008.11,0002.34
2023-04-07 15:18:00,,0833.4,5.00,0.00,22.4,20.9,00.0,30.7,23.9,11.0,0000.0,0003.42,0008.41,0002.36
2023-04-07 15:19:00,,0833.4,5.00,0.00,22.4,20.9,00.0,30.7,23.9,10.6,0000.0,0003.44,0008.57,0002.38
2023-04-07 15:20:00,,0833.4,5.01,0.00,22.4,20.9,00.0,30.7,24.0,10.7,0000.0,0003.45,0008.52,0002.41
2023-04-07 15:21:00,,0833.4,4.99,0.00,22.4,20.9,00.0,30.7,23.9,10.5,0000.0,0003.43,0008.42,0002.43
2023-04-07 15:22:00,,0833.4,5.00,0.00,22.4,20.9,00.0,30.7,23.9,10.6,0000.0,0003.43,0008.70,0002.43
2023-04-07 15:23:00,,0833.4,5.00,0.00,22.4,20.9,00.0,30.7,24.0,10.7,0000.0,0003.41,0009.00,0002.44
2023-04-07 15:24:00,,0833.5,4.99,0.00,22.4,20.9,00.0,30.7,23.9,10.1,0000.0,0003.42,0008.97,0002.45
2023-04-07 15:25:00,,0833.5,5.01,0.00,22.4,20.9,00.0,30.7,23.9,10.5,0000.0,0003.50,0009.46,0002.48
2023-04-07 15:26:00,,0833.4,5.01,0.00,22.4,20.9,00.0,30.7,23.9,10.9,0000.0,0003.50,0009.51,0002.50
2023-04-07 15:27:00,,0833.4,4.99,0.00,22.4,20.9,00.0,30.7,24.0,11.1,0000.0,0003.50,0009.60,0002.51
2023-04-07 15:28:00,,0833.5,4.99,0.00,22.4,20.9,00.0,30.7,24.0,11.1,0000.0,0003.54,0010.18,0002.54
2023-04-07 15:29:00,,0833.5,4.98,0.00,22.4,21.0,00.0,30.7,24.0,11.0,0000.0,0003.58,0010.41,0002.56
2023-04-07 15:30:00,,0833.5,5.00,0.00,22.4,21.0,00.0,30.7,24.0,10.7,0000.0,0003.59,0010.37,0002.61
2023-04-07 15:31:00,,0833.5,5.00,0.00,22.5,21.0,00.0,30.7,24.0,10.9,0000.0,0003.60,0010.38,0002.62
2023-04-07 15:32:00,,0833.5,5.00,0.00,22.5,21.0,00.0,30.7,24.0,10.9,0000.0,0003.65,0010.55,0002.65
2023-04-07 15:33:00,,0833.4,5.00,0.00,22.5,21.0,00.0,30.7,24.1,10.7,0000.0,0003.71,0010.40,0002.70
2023-04-07 15:34:00,,0833.4,4.99,0.00,22.5,21.1,00.0,30.8,24.1,10.7,0000.0,0003.75,0010.01,0002.74
2023-04-07 15:35:00,,0833.4,4.99,0.00,22.5,21.1,00.0,30.8,24.1,11.3,0000.0,0003.79,0010.50,0002.79
2023-04-07 15:36:00,,0833.4,5.00,0.00,22.5,21.1,00.0,30.8,24.1,11.3,0000.0,0003.76,0010.34,0002.84
2023-04-07 15:37:00,,0833.3,5.01,0.00,22.5,21.1,00.0,30.8,24.1,10.9,0000.0,0003.78,0009.92,0002.89
2023-04-07 15:38:00,,0833.2,5.01,0.00,22.5,21.0,00.0,30.8,24.1,11.0,0000.0,0003.84,0009.87,0002.96
2023-04-07 15:39:00,,0833.3,4.99,0.00,22.5,21.0,00.0,30.8,24.0,11.0,0000.0,0003.89,0009.34,0003.03
2023-04-07 15:40:00,,0833.3,5.00,0.00,22.5,21.0,00.0,30.8,24.1,11.2,0000.0,0003.94,0009.62,0003.08
2023-04-07 15:41:00,,0833.3,5.01,0.00,22.5,21.0,00.0,30.8,24.0,10.9,0000.0,0003.97,0009.62,0003.10
2023-04-07 15:42:00,,0833.2,5.00,0.00,22.5,21.0,00.0,30.8,24.0,11.0,0000.0,0004.05,0009.78,0003.13
2023-04-07 15:43:00,,0833.2,4.99,0.00,22.5,21.0,00.0,30.8,24.0,10.9,0000.0,0004.11,0009.88,0003.16
2023-04-07 15:44:00,,0833.3,5.00,0.00,22.5,21.0,00.0,30.8,24.0,10.8,0000.0,0004.11,0009.85,0003.18
2023-04-07 15:45:00,,0833.3,4.99,0.00,22.5,21.0,00.0,30.8,24.0,10.5,0000.0,0004.14,0009.93,0003.20
2023-04-07 15:46:00,,0833.3,5.00,0.00,22.5,21.0,00.0,30.8,24.0,10.6,0000.0,0004.12,0009.19,0003.21
2023-04-07 15:47:00,,0833.3,5.00,0.00,22.5,21.0,00.0,30.8,24.1,10.5,0000.0,0004.15,0009.29,0003.24
2023-04-07 15:48:00,,0833.2,5.00,0.00,22.5,21.1,00.0,30.8,24.1,10.9,0000.0,0004.18,0009.39,0003.25
2023-04-07 15:49:00,,0833.2,4.99,0.00,22.5,21.1,00.0,30.8,24.1,10.9,0000.0,0004.18,0009.42,0003.26
2023-04-07 15:50:00,,0833.2,5.00,0.00,22.5,21.1,00.0,30.8,24.1,10.6,0000.0,0004.15,0009.35,0003.26
2023-04-07 15:51:00,,0833.2,5.01,0.00,22.5,21.1,00.0,30.8,24.1,10.5,0000.0,0004.12,0008.59,0003.27
2023-04-07 15:52:00,,0833.2,4.99,0.00,22.5,21.1,00.0,30.8,24.1,10.4,0000.0,0004.13,0008.78,0003.27
2023-04-07 15:53:00,,0833.2,4.98,0.00,22.5,21.1,00.0,30.8,24.1,10.3,0000.0,0004.11,0010.06,0003.28
2023-04-07 15:54:00,,0833.2,5.01,0.00,22.5,21.1,00.0,30.8,24.1,10.3,0000.0,0004.08,0010.09,0003.28
2023-04-07 15:55:00,,0833.2,5.00,0.00,22.5,21.1,00.0,30.8,24.1,10.1,0000.0,0004.10,0010.17,0003.29
2023-04-07 15:56:00,,0833.2,5.00,0.00,22.5,21.1,00.0,30.8,24.1,10.3,0000.0,0004.15,0010.37,0003.30
2023-04-07 15:57:00,,0833.2,4.99,0.00,22.5,21.1,00.0,30.8,24.1,10.0,0000.0,0004.19,0010.89,0003.30
2023-04-07 15:58:00,,0833.2,5.00,0.00,22.5,21.1,00.0,30.8,24.1,10.0,0000.0,0004.19,0011.37,0003.29
2023-04-07 15:59:00,,0833.2,4.99,0.00,22.5,21.1,00.0,30.8,24.1,10.5,0000.0,0004.17,0012.05,0003.30
